When you browse on this site, cookies collect data to enhance your experience and personalize the content and advertising you see.
Visit our Privacy Policy to learn more. By continuing to use the site, you agree to this use of cookies and data.
  • In United Kingdom
  • List of Countries
  • For 7 days
  • Water Temperature
  • Weather Map
  • Weather Widgets
  • user-avatar
    Login

    Hourly Weather Belfast

    Today, 7 April, Tuesday

    Time Temperature Precipitation Wind Pressure Humidity
    00:00 +3°C° 0 mm 3 mps 766 mmHg 89%
    01:00 +3°C° 0 mm 3 mps 767 mmHg 89%
    02:00 +4°C° 0 mm 2 mps 767 mmHg 89%
    03:00 +3°C° 0 mm 2 mps 767 mmHg 89%
    04:00 +4°C° 0 mm 2 mps 767 mmHg 88%
    05:00 +4°C° 0 mm 2 mps 768 mmHg 87%
    06:00 +4°C° 0 mm 2 mps 768 mmHg 87%
    07:00 +5°C° 0 mm 2 mps 768 mmHg 83%
    08:00 +7°C° 0 mm 3 mps 768 mmHg 78%
    09:00 +8°C° 0 mm 4 mps 768 mmHg 74%
    10:00 +10°C° 0 mm 4 mps 768 mmHg 71%
    11:00 +10°C° 0 mm 5 mps 768 mmHg 68%
    12:00 +11°C° 0 mm 6 mps 768 mmHg 65%
    13:00 +11°C° 0 mm 6 mps 767 mmHg 66%
    14:00 +11°C° 0 mm 6 mps 767 mmHg 67%
    15:00 +11°C° 0 mm 7 mps 766 mmHg 68%
    16:00 +10°C° 0 mm 6 mps 766 mmHg 71%
    17:00 +10°C° 0 mm 5 mps 766 mmHg 74%
    18:00 +9°C° 0 mm 5 mps 766 mmHg 78%
    19:00 +8°C° 0 mm 4 mps 766 mmHg 81%
    20:00 +6°C° 0 mm 4 mps 767 mmHg 85%
    21:00 +5°C° 0 mm 4 mps 767 mmHg 88%
    22:00 +5°C° 0 mm 3 mps 767 mmHg 88%
    23:00 +5°C° 0 mm 3 mps 767 mmHg 88%

    Tomorrow, 8 April, Wednesday

    Time Temperature Precipitation Wind Pressure Humidity
    00:00 +5°C° 0 mm 3 mps 767 mmHg 88%
    01:00 +5°C° 0 mm 3 mps 767 mmHg 88%
    02:00 +4°C° 0 mm 3 mps 766 mmHg 89%
    03:00 +4°C° 0 mm 3 mps 766 mmHg 89%
    04:00 +4°C° 0 mm 3 mps 766 mmHg 89%
    05:00 +4°C° 0 mm 3 mps 766 mmHg 89%
    06:00 +4°C° 0 mm 3 mps 766 mmHg 89%
    07:00 +5°C° 0 mm 3 mps 766 mmHg 85%
    08:00 +8°C° 0 mm 2 mps 766 mmHg 82%
    09:00 +9°C° 0 mm 2 mps 766 mmHg 79%
    10:00 +10°C° 0 mm 3 mps 766 mmHg 76%
    11:00 +12°C° 0 mm 3 mps 766 mmHg 73%
    12:00 +13°C° 0 mm 3 mps 766 mmHg 70%
    13:00 +14°C° 0 mm 3 mps 766 mmHg 71%
    14:00 +14°C° 0 mm 3 mps 766 mmHg 72%
    15:00 +14°C° 0 mm 3 mps 766 mmHg 73%
    16:00 +14°C° 0 mm 3 mps 766 mmHg 77%
    17:00 +14°C° 0 mm 2 mps 765 mmHg 81%
    18:00 +14°C° 0 mm 2 mps 765 mmHg 85%
    19:00 +13°C° 0 mm 1 mps 766 mmHg 86%
    20:00 +12°C° 0 mm 1 mps 766 mmHg 88%
    21:00 +11°C° 0 mm 1 mps 766 mmHg 89%
    22:00 +11°C° 0 mm 1 mps 766 mmHg 90%
    23:00 +10°C° 0 mm 0 mps 766 mmHg 90%

    Day after tomorrow, 9 April, Thursday

    Time Temperature Precipitation Wind Pressure Humidity
    00:00 +10°C° 0 mm 0 mps 767 mmHg 90%
    01:00 +9°C° 0 mm 0 mps 766 mmHg 91%
    02:00 +10°C° 0 mm 1 mps 766 mmHg 92%
    03:00 +9°C° 0 mm 1 mps 766 mmHg 94%
    04:00 +9°C° 0 mm 1 mps 766 mmHg 94%
    05:00 +9°C° 0 mm 1 mps 766 mmHg 94%
    06:00 +9°C° 0 mm 1 mps 766 mmHg 95%
    07:00 +10°C° 0 mm 1 mps 766 mmHg 91%
    08:00 +12°C° 0 mm 2 mps 766 mmHg 88%
    09:00 +13°C° 0 mm 2 mps 766 mmHg 84%
    10:00 +12°C° 0 mm 3 mps 767 mmHg 81%
    11:00 +13°C° 0 mm 4 mps 767 mmHg 78%
    12:00 +13°C° 0 mm 4 mps 767 mmHg 75%
    13:00 +13°C° 0 mm 4 mps 766 mmHg 76%
    14:00 +13°C° 0 mm 4 mps 766 mmHg 76%
    15:00 +13°C° 0 mm 4 mps 766 mmHg 77%
    16:00 +13°C° 0 mm 3 mps 766 mmHg 80%
    17:00 +12°C° 0 mm 3 mps 765 mmHg 83%
    18:00 +12°C° 0 mm 3 mps 765 mmHg 87%
    19:00 +12°C° 0 mm 2 mps 765 mmHg 89%
    20:00 +10°C° 0 mm 2 mps 765 mmHg 92%
    21:00 +9°C° 0 mm 2 mps 765 mmHg 95%
    22:00 +9°C° 0 mm 2 mps 765 mmHg 95%
    23:00 +9°C° 0 mm 2 mps 765 mmHg 95%

    10 April, Friday

    Time Temperature Precipitation Wind Pressure Humidity
    00:00 +9°C° 0 mm 2 mps 765 mmHg 95%
    01:00 +9°C° 0 mm 2 mps 765 mmHg 95%
    02:00 +9°C° 0 mm 2 mps 765 mmHg 95%
    03:00 +9°C° 0 mm 2 mps 764 mmHg 95%
    04:00 +9°C° 0 mm 2 mps 765 mmHg 95%
    05:00 +9°C° 0 mm 2 mps 765 mmHg 95%
    06:00 +9°C° 0 mm 2 mps 765 mmHg 95%
    07:00 +10°C° 0 mm 2 mps 765 mmHg 92%
    08:00 +13°C° 0 mm 2 mps 765 mmHg 89%
    09:00 +14°C° 0 mm 2 mps 765 mmHg 86%
    10:00 +14°C° 0 mm 3 mps 764 mmHg 83%
    11:00 +16°C° 0 mm 3 mps 764 mmHg 80%
    12:00 +17°C° 0 mm 4 mps 764 mmHg 76%
    13:00 +17°C° 0.1 mm 4 mps 764 mmHg 77%
    14:00 +17°C° 0.1 mm 4 mps 763 mmHg 77%
    15:00 +17°C° 0.1 mm 4 mps 763 mmHg 77%
    16:00 +17°C° 0.4 mm 4 mps 763 mmHg 81%
    17:00 +15°C° 0.4 mm 4 mps 763 mmHg 86%
    18:00 +14°C° 0.4 mm 3 mps 763 mmHg 90%
    19:00 +14°C° 0.3 mm 3 mps 763 mmHg 92%
    20:00 +13°C° 0.3 mm 3 mps 763 mmHg 94%
    21:00 +12°C° 0.3 mm 3 mps 763 mmHg 96%
    22:00 +12°C° 0.1 mm 3 mps 763 mmHg 95%
    23:00 +11°C° 0.1 mm 3 mps 763 mmHg 95%

    11 April, Saturday

    Time Temperature Precipitation Wind Pressure Humidity
    00:00 +11°C° 0.1 mm 3 mps 764 mmHg 95%
    01:00 +10°C° 0 mm 3 mps 764 mmHg 95%
    02:00 +9°C° 0 mm 3 mps 764 mmHg 95%
    03:00 +8°C° 0 mm 3 mps 764 mmHg 95%
    04:00 +8°C° 0 mm 3 mps 764 mmHg 94%
    05:00 +8°C° 0 mm 3 mps 764 mmHg 93%
    06:00 +8°C° 0 mm 3 mps 765 mmHg 92%
    07:00 +8°C° 0 mm 4 mps 765 mmHg 89%
    08:00 +8°C° 0 mm 4 mps 765 mmHg 86%
    09:00 +9°C° 0 mm 5 mps 766 mmHg 83%
    10:00 +9°C° 0 mm 5 mps 766 mmHg 80%
    11:00 +11°C° 0 mm 4 mps 766 mmHg 78%
    12:00 +11°C° 0 mm 4 mps 766 mmHg 75%
    13:00 +11°C° 0 mm 4 mps 766 mmHg 74%
    14:00 +12°C° 0 mm 3 mps 766 mmHg 73%
    15:00 +12°C° 0 mm 3 mps 766 mmHg 72%
    16:00 +12°C° 0 mm 3 mps 765 mmHg 75%
    17:00 +13°C° 0 mm 2 mps 765 mmHg 78%
    18:00 +13°C° 0 mm 2 mps 765 mmHg 82%
    19:00 +10°C° 0 mm 2 mps 765 mmHg 82%
    20:00 +8°C° 0 mm 2 mps 764 mmHg 83%
    21:00 +7°C° 0 mm 1 mps 764 mmHg 84%
    22:00 +6°C° 0 mm 2 mps 764 mmHg 85%
    23:00 +6°C° 0 mm 2 mps 763 mmHg 86%

    12 April, Sunday

    Time Temperature Precipitation Wind Pressure Humidity
    00:00 +7°C° 0 mm 2 mps 763 mmHg 88%
    01:00 +7°C° 0.1 mm 2 mps 762 mmHg 89%
    02:00 +7°C° 0.1 mm 2 mps 761 mmHg 89%
    03:00 +7°C° 0.1 mm 2 mps 761 mmHg 90%
    04:00 +7°C° 0 mm 2 mps 760 mmHg 91%
    05:00 +7°C° 0 mm 2 mps 760 mmHg 91%
    06:00 +7°C° 0 mm 2 mps 759 mmHg 91%
    07:00 +7°C° 0.1 mm 2 mps 759 mmHg 89%
    08:00 +8°C° 0.1 mm 2 mps 759 mmHg 86%
    09:00 +8°C° 0.1 mm 3 mps 759 mmHg 83%
    10:00 +7°C° 0.5 mm 4 mps 759 mmHg 85%
    11:00 +7°C° 0.5 mm 5 mps 759 mmHg 87%
    12:00 +7°C° 0.5 mm 6 mps 759 mmHg 89%
    13:00 +7°C° 0.9 mm 6 mps 759 mmHg 90%
    14:00 +7°C° 0.9 mm 6 mps 760 mmHg 91%
    15:00 +6°C° 0.9 mm 7 mps 760 mmHg 93%
    16:00 +8°C° 0.1 mm 7 mps 760 mmHg 90%
    17:00 +8°C° 0.1 mm 7 mps 761 mmHg 88%
    18:00 +9°C° 0.1 mm 7 mps 761 mmHg 85%
    19:00 +7°C° 0 mm 8 mps 763 mmHg 85%
    20:00 +7°C° 0 mm 8 mps 764 mmHg 85%
    21:00 +6°C° 0 mm 8 mps 765 mmHg 85%
    22:00 +6°C° 0 mm 8 mps 766 mmHg 84%
    23:00 +6°C° 0 mm 8 mps 767 mmHg 84%
    Show more